QPF
0.00 0.00 0.00 0.00 0.00 0.00 0.00 0.00 0.00 0.00 0.00 0.00 0.00 0.00 0.01 0.01 0.00 0.00 0.03 0.03 0.01 0.00 0.00 0.01 0.00 0.00 0.00 0.00 0.00 0.00 0.00 0.00 0.00 0.00 0.00 0.00 0.00 0.00 0.00 0.00 0.00 0.00 0.00
0.00 0.00 0.00 0.00 0.00 0.00 0.00 0.00 0.00 0.00 0.00 0.00 0.00 0.00 0.01 0.02 0.02 0.04 0.05 0.03 0.01 0.00 0.00 0.01 0.00 0.00 0.00 0.00 0.00 0.00 0.00 0.00 0.00 0.00 0.00 0.00 0.00 0.00 0.00 0.00 0.00 0.00 0.00
0.00 0.00 0.00 0.00 0.00 0.00 0.00 0.00 0.00 0.00 0.00 0.00 0.00 0.00 0.05 0.04 0.04 0.07 0.08 0.03 0.01 0.00 0.01 0.00 0.00 0.00 0.00 0.00 0.00 0.00 0.00 0.00 0.00 0.00 0.00 0.00 0.00 0.00 0.00 0.00 0.00 0.00 0.00
0.00 0.00 0.00 0.00 0.00 0.00 0.00 0.00 0.00 0.00 0.00 0.00 0.00 0.02 0.05 0.04 0.05 0.08 0.05 0.03 0.04 0.02 0.01 0.00 0.00 0.00 0.00 0.00 0.00 0.00 0.00 0.00 0.00 0.00 0.00 0.00 0.00 0.00 0.00 0.00 0.00 0.00 0.00
0.00 0.00 0.00 0.00 0.00 0.01 0.00 0.00 0.00 0.00 0.00 0.00 0.01 0.02 0.02 0.03 0.03 0.05 0.04 0.03 0.01 0.01 0.00 0.00 0.00 0.00 0.00 0.00 0.00 0.00 0.00 0.00 0.00 0.00 0.00 0.00 0.00 0.00 0.00 0.00 0.00 0.00 0.00
0.00 0.00 0.00 0.00 0.00 0.00 0.00 0.00 0.00 0.00 0.00 0.00 0.01 0.01 0.02 0.02 0.04 0.05 0.05 0.03 0.02 0.00 0.00 0.00 0.00 0.00 0.00 0.00 0.00 0.00 0.00 0.00 0.00 0.00 0.00 0.00 0.00 0.00 0.00 0.00 0.00 0.00 0.00
0.00 0.00 0.00 0.00 0.00 0.00 0.00 0.00 0.00 0.00 0.00 0.01 0.01 0.02 0.01 0.03 0.05 0.06 0.04 0.02 0.00 0.00 0.00 0.00 0.00 0.00 0.00 0.00 0.00 0.00 0.00 0.00 0.00 0.00 0.00 0.00 0.00 0.00 0.00 0.00 0.00 0.00 0.00
0.00 0.00 0.00 0.00 0.00 0.00 0.00 0.00 0.00 0.00 0.01 0.02 0.03 0.04 0.03 0.07 0.10 0.06 0.02 0.01 0.00 0.00 0.00 0.00 0.00 0.00 0.00 0.00 0.00 0.00 0.00 0.00 0.00 0.00 0.00 0.00 0.00 0.00 0.00 0.00 0.00 0.00 0.00
0.00 0.00 0.00 0.00 0.00 0.00 0.00 0.01 0.02 0.02 0.03 0.04 0.05 0.05 0.08 0.09 0.10 0.07 0.04 0.02 0.01 0.00 0.00 0.00 0.00 0.00 0.00 0.00 0.00 0.00 0.00 0.00 0.00 0.00 0.00 0.00 0.00 0.00 0.00 0.00 0.00 0.00 0.00
0.00 0.00 0.00 0.00 0.00 0.00 0.00 0.01 0.02 0.04 0.04 0.05 0.07 0.08 0.09 0.08 0.07 0.05 0.03 0.01 0.00 0.00 0.00 0.00 0.00 0.00 0.00 0.00 0.00 0.00 0.00 0.00 0.00 0.00 0.00 0.00 0.00 0.00 0.00 0.00 0.00 0.00 0.00
0.00 0.00 0.00 0.00 0.00 0.00 0.00 0.00 0.01 0.05 0.07 0.08 0.08 0.08 0.07 0.06 0.03 0.02 0.01 0.00 0.00 0.00 0.00 0.00 0.00 0.00 0.00 0.00 0.00 0.00 0.00 0.00 0.00 0.00 0.00 0.00 0.00 0.00 0.00 0.00 0.00 0.00 0.00
0.00 0.00 0.00 0.00 0.00 0.00 0.00 0.00 0.00 0.00 0.03 0.06 0.09 0.08 0.07 0.06 0.03 0.02 0.00 0.00 0.00 0.00 0.00 0.00 0.00 0.00 0.00 0.00 0.00 0.00 0.00 0.00 0.00 0.00 0.00 0.00 0.00 0.00 0.00 0.00 0.00 0.00 0.00
0.00 0.00 0.00 0.00 0.00 0.00 0.00 0.00 0.00 0.00 0.02 0.04 0.04 0.05 0.04 0.04 0.03 0.01 0.00 0.00 0.00 0.00 0.00 0.00 0.00 0.00 0.00 0.00 0.00 0.00 0.00 0.00 0.00 0.00 0.00 0.00 0.00 0.00 0.00 0.00 0.00 0.00 0.00
0.00 0.00 0.00 0.00 0.00 0.00 0.00 0.00 0.00 0.00 0.01 0.01 0.02 0.04 0.03 0.04 0.02 0.00 0.00 0.00 0.00 0.00 0.00 0.00 0.00 0.00 0.00 0.00 0.00 0.00 0.00 0.00 0.00 0.00 0.00 0.00 0.00 0.00 0.00 0.00 0.00 0.00 0.00
0.00 0.00 0.00 0.00 0.00 0.00 0.00 0.00 0.00 0.00 0.00 0.01 0.02 0.02 0.02 0.03 0.02 0.01 0.01 0.00 0.00 0.00 0.00 0.00 0.00 0.00 0.00 0.00 0.00 0.00 0.00 0.00 0.00 0.00 0.00 0.00 0.00 0.00 0.00 0.00 0.00 0.00 0.00
0.00 0.00 0.00 0.00 0.00 0.00 0.00 0.00 0.00 0.00 0.00 0.00 0.00 0.00 0.02 0.04 0.04 0.03 0.01 0.01 0.00 0.00 0.00 0.00 0.00 0.00 0.00 0.00 0.00 0.00 0.00 0.00 0.00 0.00 0.00 0.00 0.00 0.00 0.00 0.00 0.00 0.00 0.00
0.00 0.00 0.00 0.00 0.00 0.00 0.00 0.00 0.00 0.00 0.00 0.00 0.00 0.00 0.01 0.02 0.03 0.02 0.01 0.00 0.00 0.00 0.00 0.00 0.00 0.00 0.00 0.00 0.00 0.00 0.00 0.00 0.00 0.00 0.00 0.00 0.00 0.00 0.00 0.00 0.00 0.00 0.00
0.00 0.00 0.00 0.00 0.00 0.00 0.00 0.00 0.00 0.00 0.01 0.01 0.01 0.00 0.00 0.00 0.00 0.01 0.00 0.00 0.00 0.00 0.00 0.00 0.00 0.00 0.00 0.00 0.00 0.00 0.00 0.00 0.00 0.00 0.00 0.00 0.00 0.00 0.00 0.00 0.00 0.00 0.00
0.00 0.00 0.00 0.00 0.00 0.00 0.00 0.00 0.00 0.00 0.01 0.01 0.01 0.01 0.00 0.00 0.00 0.00 0.00 0.00 0.00 0.00 0.00 0.00 0.00 0.00 0.00 0.00 0.00 0.00 0.00 0.00 0.00 0.00 0.00 0.00 0.00 0.00 0.00 0.00 0.00 0.00 0.00
0.00 0.00 0.00 0.00 0.00 0.00 0.00 0.00 0.00 0.00 0.01 0.02 0.01 0.01 0.01 0.00 0.00 0.00 0.00 0.00 0.00 0.00 0.00 0.00 0.00 0.00 0.00 0.00 0.00 0.00 0.00 0.00 0.00 0.00 0.00 0.00 0.00 0.00 0.00 0.00 0.00 0.00 0.00
0.00 0.00 0.00 0.00 0.00 0.00 0.00 0.00 0.00 0.00 0.00 0.00 0.01 0.01 0.01 0.01 0.00 0.00 0.00 0.00 0.00 0.00 0.00 0.00 0.00 0.00 0.00 0.00 0.00 0.00 0.00 0.00 0.00 0.00 0.00 0.00 0.00 0.00 0.00 0.00 0.00 0.00 0.00
0.00 0.00 0.00 0.00 0.00 0.00 0.00 0.00 0.00 0.00 0.01 0.01 0.01 0.01 0.01 0.01 0.00 0.00 0.00 0.00 0.00 0.00 0.00 0.00 0.00 0.00 0.00 0.00 0.00 0.00 0.00 0.00 0.00 0.00 0.00 0.00 0.00 0.00 0.00 0.00 0.00 0.00 0.00
0.00 0.00 0.00 0.00 0.00 0.00 0.01 0.01 0.00 0.01 0.01 0.01 0.01 0.00 0.00 0.00 0.00 0.00 0.00 0.00 0.00 0.00 0.00 0.00 0.00 0.00 0.00 0.00 0.00 0.00 0.00 0.00 0.00 0.00 0.00 0.00 0.00 0.00 0.00 0.00 0.00 0.00 0.00
0.00 0.00 0.00 0.00 0.00 0.00 0.00 0.00 0.00 0.00 0.01 0.00 0.00 0.00 0.00 0.00 0.00 0.00 0.00 0.00 0.00 0.00 0.00 0.00 0.00 0.00 0.00 0.00 0.00 0.00 0.00 0.00 0.00 0.00 0.00 0.00 0.00 0.00 0.00 0.00 0.00 0.00 0.00
0.00 0.00 0.00 0.00 0.00 0.00 0.00 0.00 0.00 0.00 0.00 0.00 0.00 0.00 0.00 0.00 0.00 0.00 0.00 0.00 0.00 0.00 0.00 0.00 0.00 0.00 0.00 0.00 0.00 0.00 0.00 0.00 0.00 0.00 0.00 0.00 0.00 0.00 0.00 0.00 0.00 0.00 0.00
0.00 0.00 0.00 0.00 0.00 0.00 0.00 0.00 0.00 0.00 0.00 0.00 0.00 0.00 0.00 0.00 0.00 0.00 0.00 0.00 0.00 0.00 0.00 0.00 0.00 0.00 0.00 0.00 0.00 0.00 0.00 0.00 0.00 0.00 0.00 0.00 0.00 0.00 0.00 0.00 0.00 0.00 0.00
MSLP
999.28 999.20 998.98 999.08 999.35 999.76 1000.09 1000.57 1000.93 1001.21 1001.58 1002.41 1003.29 1004.00 1004.27 1004.54 1005.21 1006.18 1007.08 1007.90 1008.72 1009.89 1011.08 1011.59 1012.22 1012.87 1013.64 1014.38 1015.01 1015.25 1015.57 1015.69 1015.66 1015.73 1016.02 1016.75 1017.39 1017.85 1018.01 1017.97 1017.64 1017.30 1017.01
999.46 999.26 999.17 999.24 999.28 999.42 999.55 999.87 1000.43 1000.95 1001.57 1002.16 1002.67 1003.52 1004.09 1004.53 1004.93 1005.78 1006.64 1007.83 1008.90 1009.57 1010.57 1011.43 1012.23 1013.13 1013.74 1014.25 1014.90 1015.19 1015.64 1015.64 1016.22 1016.05 1016.41 1016.98 1017.52 1017.80 1018.02 1017.74 1017.38 1017.28 1016.90
999.90 999.46 999.27 999.34 999.45 999.43 999.33 999.30 999.88 1000.64 1001.26 1001.93 1002.58 1002.96 1003.68 1004.11 1004.61 1005.27 1006.37 1007.41 1008.44 1009.32 1010.14 1011.22 1012.12 1012.65 1013.41 1014.17 1014.55 1014.88 1015.51 1015.55 1016.25 1016.63 1017.02 1017.49 1017.99 1018.21 1018.07 1018.16 1017.87 1017.74 1017.07
1000.39 999.92 999.54 999.38 999.30 999.40 999.41 999.41 999.95 1000.58 1001.38 1001.92 1002.45 1002.97 1003.58 1004.16 1004.73 1005.41 1006.41 1007.74 1008.50 1009.40 1010.30 1011.21 1012.14 1012.70 1013.22 1014.12 1014.53 1015.06 1015.40 1015.88 1016.46 1017.04 1017.46 1017.95 1018.53 1018.65 1018.85 1018.59 1018.37 1018.03 1017.26
1000.78 1000.44 1000.11 1000.27 1000.20 999.98 999.91 1000.28 1000.38 1000.67 1001.10 1001.57 1002.24 1002.88 1003.59 1004.16 1005.02 1005.75 1006.83 1007.72 1008.41 1009.90 1010.81 1011.45 1012.19 1012.97 1013.48 1014.04 1014.23 1014.76 1015.37 1016.07 1016.53 1017.17 1017.86 1018.47 1018.90 1018.99 1018.92 1018.77 1018.57 1018.05 1017.42
1000.87 1000.71 1000.47 1000.24 1000.67 1000.85 1000.84 1000.90 1000.94 1001.01 1001.31 1001.68 1002.18 1002.72 1003.57 1004.25 1004.98 1005.81 1006.93 1007.45 1008.41 1009.49 1010.44 1011.22 1012.40 1013.34 1014.03 1014.25 1014.80 1015.39 1016.00 1016.04 1016.76 1017.36 1017.69 1018.45 1018.96 1019.12 1019.05 1019.07 1018.77 1018.25 1017.69
1000.71 1000.51 1000.56 1000.63 1000.72 1001.38 1001.59 1001.56 1001.65 1001.58 1001.66 1001.96 1002.41 1002.71 1003.41 1004.20 1005.25 1006.12 1006.39 1006.99 1008.01 1009.33 1010.17 1011.42 1012.21 1013.29 1013.93 1014.41 1015.39 1015.91 1016.59 1017.18 1017.70 1017.85 1017.90 1018.48 1018.81 1019.07 1019.34 1019.23 1019.09 1018.76 1018.23
1000.34 1000.18 1000.17 1000.35 1000.71 1001.50 1001.91 1001.95 1002.04 1002.23 1002.27 1002.33 1002.73 1003.20 1003.83 1004.59 1005.39 1006.30 1006.69 1007.26 1008.32 1009.39 1010.38 1011.36 1012.11 1013.53 1013.89 1014.10 1014.97 1015.86 1016.45 1017.34 1017.87 1018.16 1018.20 1018.76 1018.90 1019.02 1019.42 1019.53 1019.24 1018.79 1018.19
999.98 999.88 999.94 1000.08 1000.31 1001.25 1002.02 1002.25 1002.18 1002.34 1002.65 1002.79 1003.03 1003.58 1004.25 1005.33 1005.97 1006.50 1006.76 1007.87 1009.00 1010.03 1010.66 1011.44 1012.27 1013.15 1013.79 1014.04 1014.45 1015.49 1016.49 1017.45 1017.86 1018.37 1018.72 1019.04 1019.08 1019.35 1019.71 1019.61 1019.31 1019.11 1018.24
999.82 999.71 999.77 999.96 1000.01 1000.36 1001.64 1002.27 1002.35 1002.45 1002.78 1003.15 1003.43 1003.85 1004.43 1005.30 1006.16 1006.53 1006.92 1008.11 1009.25 1010.38 1011.28 1011.86 1012.55 1013.41 1013.98 1014.68 1015.27 1016.06 1017.02 1017.56 1018.16 1018.45 1018.70 1018.88 1019.02 1019.16 1019.39 1019.47 1019.34 1019.29 1019.10
999.67 999.61 999.76 999.84 999.85 1000.00 1001.37 1002.13 1002.45 1002.73 1003.10 1003.59 1003.91 1004.42 1004.92 1005.32 1006.18 1006.47 1006.90 1007.76 1008.91 1010.24 1011.12 1012.04 1012.83 1013.23 1014.13 1014.84 1015.40 1015.69 1016.56 1017.36 1018.11 1018.16 1018.37 1018.66 1018.74 1018.89 1018.99 1019.21 1019.49 1019.51 1019.24
999.19 999.32 999.49 999.75 1000.03 1000.27 1001.21 1001.98 1002.43 1002.76 1003.06 1003.68 1004.10 1004.49 1005.27 1005.84 1006.64 1007.20 1007.12 1007.10 1008.55 1009.83 1011.24 1012.50 1013.38 1013.95 1014.81 1015.40 1016.03 1016.45 1016.79 1017.30 1017.95 1018.14 1018.11 1018.29 1018.53 1018.74 1019.11 1019.16 1019.45 1019.32 1019.35
998.70 998.86 999.27 999.53 1000.10 1000.34 1001.29 1001.81 1002.48 1002.66 1002.92 1003.26 1003.98 1004.64 1005.09 1005.50 1006.79 1007.53 1007.30 1007.83 1008.78 1010.04 1011.17 1012.57 1013.79 1014.54 1015.21 1015.67 1016.34 1016.80 1016.89 1017.00 1017.60 1017.92 1018.16 1018.33 1018.41 1018.57 1018.78 1018.92 1018.95 1018.83 1019.01
998.06 998.21 999.10 999.93 1000.12 1000.50 1000.88 1001.45 1001.93 1002.20 1002.66 1003.06 1003.42 1004.29 1005.17 1006.04 1006.30 1006.68 1008.06 1009.15 1010.18 1011.02 1012.30 1013.64 1014.34 1015.26 1015.28 1016.17 1016.85 1016.88 1016.85 1017.02 1017.41 1017.81 1018.06 1018.15 1018.11 1018.12 1018.22 1018.27 1018.19 1018.36 1018.46
997.47 997.68 998.33 999.12 999.92 1000.34 1000.56 1000.73 1001.18 1001.40 1001.66 1002.20 1002.78 1003.34 1004.47 1005.62 1006.48 1006.69 1007.57 1008.63 1010.28 1011.15 1012.41 1014.00 1014.64 1015.31 1015.37 1015.91 1016.61 1016.59 1016.80 1017.15 1017.49 1017.92 1018.19 1018.00 1017.84 1017.85 1018.04 1018.30 1018.37 1018.33 1018.47
996.38 996.97 998.07 998.90 999.62 1000.04 1000.34 1000.61 1000.96 1001.29 1001.50 1002.02 1002.44 1003.06 1004.29 1005.12 1006.41 1007.38 1007.80 1009.49 1010.81 1011.88 1012.91 1012.97 1014.09 1014.49 1015.04 1015.99 1016.22 1016.23 1016.63 1016.87 1017.36 1017.86 1017.95 1017.68 1017.88 1017.97 1018.21 1018.40 1018.60 1018.69 1018.71
995.65 995.77 996.94 997.89 998.88 999.54 999.90 1000.22 1000.77 1001.72 1001.67 1002.01 1002.80 1003.45 1004.14 1005.11 1006.28 1007.38 1008.24 1009.14 1010.28 1010.79 1011.13 1012.35 1012.91 1014.51 1015.52 1015.64 1015.70 1016.18 1016.62 1017.05 1017.34 1017.93 1017.81 1017.82 1018.11 1018.30 1018.52 1018.58 1018.76 1018.75 1018.85
994.84 995.08 995.73 996.68 997.97 998.80 999.20 999.63 1000.17 1000.93 1001.61 1002.70 1003.55 1003.61 1004.59 1005.23 1006.32 1007.67 1008.81 1009.79 1010.74 1011.90 1011.53 1012.58 1013.72 1014.82 1015.17 1014.95 1015.75 1016.38 1016.53 1016.91 1017.40 1018.14 1018.38 1018.21 1018.32 1018.62 1018.54 1018.68 1018.91 1018.93 1018.91
994.20 994.15 994.66 995.78 996.95 997.90 998.56 999.10 999.66 1000.72 1001.63 1002.60 1003.67 1004.30 1005.00 1005.90 1006.76 1007.86 1008.82 1009.14 1010.15 1011.10 1011.96 1012.70 1012.97 1014.24 1014.44 1015.09 1015.78 1016.23 1016.94 1017.13 1017.69 1018.37 1018.47 1018.72 1018.78 1018.78 1018.84 1019.03 1019.28 1019.35 1019.28
993.45 993.91 994.55 995.53 996.54 997.45 998.16 998.77 999.19 1000.29 1001.37 1002.17 1003.22 1003.98 1004.80 1006.11 1007.13 1008.05 1008.80 1009.36 1010.20 1010.84 1011.54 1012.61 1013.16 1013.89 1014.76 1015.50 1015.72 1016.62 1017.28 1017.60 1017.99 1018.29 1018.97 1019.04 1018.99 1018.88 1019.12 1019.27 1019.40 1019.60 1019.81
993.82 994.14 994.53 995.27 996.08 996.87 997.69 998.32 998.73 999.73 1000.87 1001.84 1002.94 1004.05 1004.57 1005.53 1006.96 1007.80 1008.47 1009.21 1010.03 1011.02 1012.01 1012.64 1013.35 1014.34 1014.99 1015.24 1015.96 1016.60 1017.21 1017.43 1017.75 1018.28 1018.82 1019.12 1019.04 1019.18 1019.39 1019.54 1019.70 1019.71 1020.11
994.56 994.78 994.99 995.40 996.04 996.83 997.68 998.33 998.92 999.74 1000.77 1001.82 1003.26 1004.53 1005.36 1006.62 1007.61 1008.51 1009.09 1009.54 1010.16 1010.97 1012.51 1013.06 1013.73 1014.47 1015.31 1015.50 1015.94 1016.82 1017.35 1017.70 1018.08 1018.47 1018.90 1019.21 1019.32 1019.42 1019.66 1019.90 1020.09 1020.29 1020.52
995.09 995.27 995.70 995.98 996.42 997.22 998.05 998.66 999.43 1000.11 1000.93 1002.10 1003.37 1004.72 1005.89 1007.00 1007.91 1008.95 1009.15 1010.22 1010.76 1012.18 1013.20 1013.58 1014.03 1014.79 1015.48 1015.92 1016.48 1017.05 1017.41 1017.95 1018.32 1018.59 1018.98 1019.26 1019.52 1019.66 1019.93 1020.11 1020.22 1020.61 1020.86
995.88 996.04 996.35 996.70 997.17 997.72 998.29 999.20 1000.18 1000.62 1001.25 1002.35 1003.69 1004.94 1006.11 1007.60 1008.36 1009.56 1010.07 1010.93 1011.43 1012.91 1013.72 1014.10 1014.51 1015.19 1015.83 1016.46 1016.91 1017.23 1017.69 1018.04 1018.54 1018.86 1018.99 1019.31 1019.68 1019.89 1020.06 1020.55 1020.71 1020.82 1021.03
997.05 997.16 997.40 997.67 997.96 998.53 999.38 1000.04 1000.66 1001.07 1001.86 1003.08 1004.56 1005.81 1007.05 1007.73 1008.90 1010.22 1011.01 1011.66 1012.50 1013.39 1014.07 1014.74 1015.27 1015.88 1016.38 1016.91 1017.11 1017.58 1018.09 1018.25 1018.59 1019.06 1019.22 1019.47 1019.78 1020.08 1020.48 1020.79 1021.09 1021.15 1021.40
998.06 998.18 998.32 998.60 999.04 999.61 1000.16 1000.92 1001.57 1001.96 1003.03 1004.30 1005.36 1006.59 1007.73 1008.81 1009.94 1010.72 1011.39 1012.06 1013.00 1013.64 1014.40 1015.05 1015.74 1016.28 1016.89 1017.40 1017.78 1018.16 1018.37 1018.62 1018.98 1019.14 1019.39 1019.73 1020.16 1020.38 1020.89 1021.15 1021.36 1021.57 1021.85
Thickness
5710 5716 5723 5727 5729 5729 5729 5727 5728 5729 5728 5724 5720 5715 5713 5712 5706 5697 5689 5683 5677 5667 5658 5652 5645 5639 5629 5620 5610 5605 5597 5594 5593 5591 5587 5578 5569 5562 5555 5551 5548 5545 5539
5695 5701 5707 5711 5715 5717 5720 5721 5721 5719 5718 5716 5714 5709 5704 5700 5697 5691 5684 5676 5665 5660 5651 5643 5636 5626 5619 5612 5602 5597 5591 5589 5581 5581 5574 5565 5558 5552 5545 5542 5539 5532 5528
5675 5684 5691 5695 5698 5702 5708 5712 5712 5710 5708 5707 5703 5702 5697 5694 5690 5686 5676 5668 5659 5652 5645 5635 5627 5621 5613 5603 5598 5594 5585 5581 5573 5566 5558 5551 5543 5537 5534 5527 5524 5518 5517
5656 5665 5672 5679 5685 5690 5694 5698 5698 5696 5693 5692 5691 5689 5686 5683 5680 5674 5665 5655 5648 5639 5632 5624 5615 5609 5605 5594 5590 5582 5576 5569 5561 5551 5544 5536 5527 5522 5516 5512 5507 5505 5505
5636 5644 5652 5657 5662 5670 5676 5675 5679 5681 5682 5681 5678 5676 5673 5670 5663 5658 5650 5642 5635 5623 5615 5610 5604 5597 5589 5584 5582 5575 5567 5557 5550 5540 5530 5520 5512 5508 5503 5500 5495 5493 5492
5619 5626 5634 5642 5643 5646 5651 5656 5660 5664 5666 5666 5665 5664 5660 5656 5648 5643 5635 5631 5623 5615 5608 5603 5590 5581 5574 5570 5564 5555 5547 5548 5540 5530 5523 5511 5502 5496 5491 5486 5482 5481 5478
5604 5611 5616 5622 5628 5627 5629 5633 5636 5642 5647 5649 5649 5652 5649 5642 5633 5626 5625 5623 5616 5605 5599 5589 5581 5573 5565 5560 5548 5540 5531 5523 5515 5511 5509 5500 5492 5485 5476 5472 5468 5466 5464
5589 5597 5604 5608 5612 5602 5611 5614 5618 5622 5627 5632 5632 5632 5629 5625 5619 5612 5610 5607 5601 5593 5585 5577 5571 5557 5554 5552 5542 5531 5524 5512 5502 5496 5494 5485 5480 5472 5463 5457 5453 5450 5450
5576 5582 5590 5595 5600 5592 5589 5593 5598 5603 5606 5610 5615 5615 5611 5604 5601 5597 5598 5590 5582 5572 5570 5563 5557 5549 5541 5539 5535 5522 5511 5498 5492 5484 5477 5470 5465 5457 5448 5442 5439 5434 5435
5560 5569 5576 5582 5589 5592 5579 5577 5584 5592 5592 5593 5594 5597 5594 5589 5586 5586 5585 5576 5568 5560 5553 5548 5541 5534 5527 5520 5514 5504 5492 5486 5478 5472 5466 5459 5452 5444 5436 5429 5423 5419 5416
5543 5553 5560 5568 5576 5582 5568 5566 5570 5574 5575 5576 5577 5577 5576 5578 5574 5574 5573 5567 5558 5547 5540 5532 5527 5522 5514 5507 5500 5496 5485 5476 5465 5462 5456 5447 5440 5432 5426 5417 5409 5403 5402
5527 5535 5542 5549 5558 5564 5553 5552 5555 5559 5563 5563 5564 5564 5560 5560 5558 5556 5557 5558 5545 5536 5525 5517 5510 5504 5496 5490 5482 5476 5470 5463 5455 5450 5445 5437 5429 5421 5411 5404 5396 5392 5388
5509 5519 5524 5533 5537 5545 5535 5536 5539 5545 5550 5554 5553 5552 5551 5551 5545 5542 5531 5532 5533 5525 5517 5505 5493 5486 5480 5474 5465 5458 5456 5454 5445 5437 5430 5422 5416 5408 5401 5393 5388 5385 5380
5488 5500 5501 5499 5510 5518 5521 5523 5527 5533 5536 5537 5542 5541 5537 5532 5535 5536 5524 5514 5507 5502 5493 5483 5476 5467 5467 5456 5447 5446 5445 5440 5432 5424 5416 5410 5404 5398 5392 5388 5384 5378 5375
5472 5479 5483 5483 5487 5495 5503 5510 5515 5522 5528 5529 5530 5531 5527 5521 5517 5517 5513 5508 5495 5489 5479 5466 5461 5455 5452 5446 5437 5437 5432 5425 5417 5409 5401 5398 5393 5388 5382 5376 5372 5369 5364
5462 5462 5456 5458 5461 5468 5482 5491 5497 5504 5509 5513 5516 5517 5512 5511 5504 5499 5499 5487 5478 5470 5464 5465 5453 5448 5443 5432 5430 5428 5421 5415 5406 5396 5389 5386 5381 5377 5371 5365 5359 5355 5352
5457 5463 5446 5441 5441 5447 5458 5471 5478 5480 5489 5496 5497 5498 5498 5497 5491 5485 5484 5481 5474 5462 5461 5453 5448 5435 5426 5425 5423 5415 5409 5401 5393 5381 5378 5375 5369 5365 5359 5354 5348 5345 5340
5447 5445 5443 5438 5430 5431 5440 5453 5463 5468 5473 5472 5475 5482 5477 5479 5477 5473 5468 5463 5457 5448 5450 5442 5431 5420 5418 5420 5409 5401 5397 5389 5379 5367 5363 5363 5358 5351 5349 5344 5337 5333 5329
5431 5436 5435 5430 5425 5423 5426 5434 5446 5450 5453 5457 5457 5458 5459 5461 5461 5458 5454 5457 5451 5445 5439 5431 5429 5416 5413 5404 5395 5390 5379 5374 5366 5357 5354 5348 5344 5340 5336 5331 5324 5318 5315
5415 5413 5415 5414 5414 5413 5415 5421 5430 5436 5440 5445 5448 5450 5450 5448 5448 5447 5444 5443 5439 5437 5430 5419 5415 5406 5397 5389 5385 5374 5364 5361 5355 5350 5340 5336 5333 5331 5325 5319 5313 5306 5299
5396 5396 5399 5402 5406 5409 5408 5416 5423 5430 5433 5437 5440 5440 5444 5444 5439 5437 5436 5433 5429 5423 5414 5407 5401 5390 5384 5381 5373 5364 5357 5354 5349 5341 5333 5327 5325 5320 5314 5307 5300 5295 5287
5386 5385 5388 5393 5397 5399 5399 5408 5416 5422 5426 5429 5427 5425 5427 5424 5422 5420 5419 5417 5415 5410 5394 5392 5387 5379 5371 5368 5363 5353 5347 5343 5337 5331 5325 5319 5315 5308 5302 5295 5289 5282 5275
5378 5379 5381 5384 5389 5389 5393 5401 5407 5412 5417 5418 5416 5414 5412 5410 5408 5402 5401 5399 5400 5390 5381 5379 5375 5367 5359 5355 5349 5343 5338 5332 5327 5323 5317 5310 5304 5299 5292 5286 5280 5273 5267
5375 5376 5376 5377 5382 5387 5393 5396 5397 5403 5407 5407 5405 5402 5396 5391 5393 5389 5389 5384 5383 5372 5366 5364 5361 5355 5349 5344 5338 5333 5329 5325 5320 5314 5309 5302 5295 5290 5285 5276 5271 5266 5262
5372 5374 5375 5377 5381 5385 5386 5389 5390 5397 5399 5396 5391 5387 5382 5383 5380 5374 5370 5369 5364 5359 5355 5350 5346 5342 5338 5332 5330 5326 5322 5319 5312 5305 5299 5294 5289 5283 5276 5269 5264 5261 5256
5367 5367 5371 5372 5375 5376 5377 5378 5378 5383 5382 5381 5378 5375 5371 5367 5363 5363 5361 5358 5352 5350 5344 5340 5336 5332 5327 5323 5321 5318 5314 5309 5302 5298 5292 5286 5280 5275 5268 5263 5260 5256 5251